SRR828 EKCH-EGLL

Flight info

Callsign SRR828
Flight time N/A
Altitude 32000
Route LANGO DCT ABNED L980 LOGAN
Aircraft A225/J-SCDFGHIRUWXYZ/LB1

Departure

Time 2026-04-23 14:53
Airport Copenhagen Kastrup Airport (EKCH)

Arrival

Time N/A
Airport London Heathrow Airport (EGLL)
Time Latitude Longitude Altitude Speed Heading
2026-04-23 14:28 55.61792 12.67140 22 ft 0 kts 79°
2026-04-23 14:37 55.61790 12.67123 23 ft 2 kts 79°
2026-04-23 14:37 55.61787 12.67095 25 ft 2 kts 79°
2026-04-23 14:37 55.61784 12.67067 24 ft 2 kts 80°
2026-04-23 14:37 55.61779 12.67040 27 ft 2 kts 56°
2026-04-23 14:38 55.61769 12.67018 27 ft 2 kts 37°
2026-04-23 14:38 55.61758 12.67009 24 ft 0 kts 351°
2026-04-23 14:40 55.61810 12.66994 22 ft 13 kts 350°
2026-04-23 14:40 55.61881 12.66918 24 ft 13 kts 287°
2026-04-23 14:40 55.61874 12.66762 22 ft 13 kts 258°
2026-04-23 14:41 55.61857 12.66607 22 ft 13 kts 258°
2026-04-23 14:41 55.61851 12.66555 21 ft 13 kts 258°
2026-04-23 14:41 55.61755 12.66397 25 ft 13 kts 195°
2026-04-23 14:41 55.61675 12.66305 24 ft 15 kts 228°
2026-04-23 14:42 55.61636 12.66145 25 ft 15 kts 271°
2026-04-23 14:42 55.61659 12.65973 26 ft 15 kts 294°
2026-04-23 14:42 55.61711 12.65816 28 ft 15 kts 304°
2026-04-23 14:42 55.61771 12.65659 26 ft 15 kts 302°
2026-04-23 14:43 55.61836 12.65479 26 ft 18 kts 304°
2026-04-23 14:43 55.61907 12.65292 21 ft 18 kts 302°
2026-04-23 14:43 55.61975 12.65101 21 ft 18 kts 302°
2026-04-23 14:43 55.61971 12.64909 22 ft 18 kts 217°
2026-04-23 14:44 55.61864 12.64783 25 ft 18 kts 212°
2026-04-23 14:44 55.61756 12.64661 26 ft 18 kts 213°
2026-04-23 14:44 55.61650 12.64537 25 ft 18 kts 213°
2026-04-23 14:44 55.61542 12.64414 24 ft 18 kts 213°
2026-04-23 14:45 55.61435 12.64291 26 ft 18 kts 213°
2026-04-23 14:45 55.61328 12.64168 24 ft 18 kts 213°
2026-04-23 14:45 55.61221 12.64045 24 ft 18 kts 213°
2026-04-23 14:45 55.61116 12.63924 24 ft 18 kts 213°
2026-04-23 14:46 55.61009 12.63801 25 ft 18 kts 213°
2026-04-23 14:46 55.60902 12.63679 24 ft 18 kts 213°
2026-04-23 14:46 55.60796 12.63557 25 ft 18 kts 213°
2026-04-23 14:46 55.60723 12.63474 24 ft 18 kts 213°
2026-04-23 14:47 55.60589 12.63295 22 ft 18 kts 221°
2026-04-23 14:47 55.60525 12.63195 24 ft 18 kts 221°
2026-04-23 14:47 55.60422 12.63127 24 ft 15 kts 155°
2026-04-23 14:47 55.60407 12.63146 24 ft 0 kts 140°
2026-04-23 14:51 55.60406 12.63147 24 ft 1 kts 140°
2026-04-23 14:51 55.60385 12.63183 24 ft 9 kts 134°
2026-04-23 14:51 55.60344 12.63338 27 ft 16 kts 73°
2026-04-23 14:52 55.60430 12.63491 26 ft 27 kts 41°
2026-04-23 14:52 55.60770 12.64018 28 ft 104 kts 41°
2026-04-23 14:52 55.61501 12.65147 28 ft 173 kts 40°
2026-04-23 14:52 55.62494 12.66699 335 ft 193 kts 36°
2026-04-23 14:53 55.63465 12.68209 1308 ft 181 kts 35°
2026-04-23 14:53 55.64434 12.69702 1890 ft 194 kts 36°
2026-04-23 14:53 55.65516 12.71341 1952 ft 216 kts 35°
2026-04-23 14:53 55.66721 12.73135 2228 ft 231 kts 35°
2026-04-23 14:54 55.67960 12.74984 2819 ft 236 kts 35°
2026-04-23 14:54 55.69233 12.76882 3365 ft 243 kts 36°
2026-04-23 14:54 55.70402 12.79094 3860 ft 256 kts 57°
2026-04-23 14:54 55.70840 12.82221 4415 ft 272 kts 88°
2026-04-23 14:55 55.70317 12.85495 5054 ft 285 kts 120°
2026-04-23 14:55 55.68869 12.87927 5585 ft 294 kts 154°
2026-04-23 14:55 55.66946 12.89145 6115 ft 296 kts 163°
2026-04-23 14:55 55.64963 12.90205 6695 ft 299 kts 162°
2026-04-23 14:56 55.62988 12.91381 7259 ft 300 kts 163°
2026-04-23 14:56 55.60927 12.91937 7702 ft 302 kts 190°
2026-04-23 14:56 55.59020 12.90741 8154 ft 294 kts 222°
2026-04-23 14:56 55.57587 12.88250 8631 ft 290 kts 233°
2026-04-23 14:57 55.56219 12.85589 9107 ft 295 kts 232°
2026-04-23 14:57 55.54780 12.82957 9610 ft 300 kts 231°
2026-04-23 14:57 55.53311 12.80317 10184 ft 302 kts 231°
2026-04-23 14:57 55.51922 12.77526 10531 ft 304 kts 245°
2026-04-23 14:58 55.51248 12.74031 10609 ft 303 kts 271°
2026-04-23 14:58 55.51168 12.70248 10760 ft 316 kts 275°
2026-04-23 14:58 55.51157 12.67648 10824 ft 324 kts 274°
2026-04-23 14:58 55.51066 12.62193 10963 ft 341 kts 271°
2026-04-23 14:59 55.50909 12.57940 11042 ft 353 kts 270°
2026-04-23 14:59 55.50725 12.53549 11180 ft 363 kts 270°
2026-04-23 14:59 55.50535 12.49060 11359 ft 370 kts 270°
2026-04-23 14:59 55.50346 12.44511 11662 ft 373 kts 270°
2026-04-23 15:00 55.50160 12.39936 12014 ft 374 kts 270°
2026-04-23 15:00 55.49977 12.35344 12358 ft 376 kts 270°
2026-04-23 15:00 55.49795 12.30728 12664 ft 378 kts 270°
2026-04-23 15:00 55.49542 12.26092 12946 ft 386 kts 262°
2026-04-23 15:01 55.48553 12.21599 13449 ft 402 kts 242°
2026-04-23 15:01 55.46867 12.17657 14047 ft 406 kts 234°
2026-04-23 15:01 55.45039 12.13866 14404 ft 406 kts 233°
2026-04-23 15:01 55.43222 12.10030 14602 ft 409 kts 235°
2026-04-23 15:02 55.41494 12.06033 14821 ft 410 kts 238°
2026-04-23 15:02 55.39837 12.01926 15182 ft 414 kts 239°
2026-04-23 15:02 55.38228 11.97917 15823 ft 414 kts 238°
2026-04-23 15:02 55.36542 11.93812 16518 ft 414 kts 237°
2026-04-23 15:03 55.34825 11.89736 17116 ft 417 kts 237°
2026-04-23 15:03 55.33073 11.85656 17644 ft 420 kts 236°
2026-04-23 15:03 55.31294 11.81557 18193 ft 423 kts 236°
2026-04-23 15:03 55.29500 11.77439 18729 ft 426 kts 236°
2026-04-23 15:04 55.27699 11.73298 19217 ft 428 kts 236°
2026-04-23 15:04 55.25890 11.69139 19695 ft 430 kts 236°
2026-04-23 15:04 55.24111 11.64950 20042 ft 427 kts 238°
2026-04-23 15:04 55.22417 11.60654 20069 ft 430 kts 240°
2026-04-23 15:05 55.20807 11.56225 20142 ft 432 kts 241°
2026-04-23 15:05 55.19222 11.51722 20383 ft 437 kts 241°
2026-04-23 15:05 55.17627 11.47203 20943 ft 436 kts 241°
2026-04-23 15:05 55.16013 11.42708 21503 ft 437 kts 240°
2026-04-23 15:06 55.14373 11.38219 21974 ft 440 kts 240°
2026-04-23 15:06 55.12728 11.33772 22363 ft 443 kts 240°
2026-04-23 15:06 55.11017 11.29185 22795 ft 446 kts 240°
2026-04-23 15:06 55.09312 11.24636 23245 ft 449 kts 240°
2026-04-23 15:07 55.07619 11.20127 23691 ft 451 kts 240°
2026-04-23 15:07 55.05896 11.15540 24075 ft 453 kts 240°
2026-04-23 15:07 55.04141 11.10868 24434 ft 456 kts 240°
2026-04-23 15:07 55.02420 11.06291 24785 ft 459 kts 240°
2026-04-23 15:08 55.00665 11.01628 25075 ft 462 kts 239°
2026-04-23 15:08 54.98932 10.97034 25357 ft 466 kts 239°
2026-04-23 15:08 54.97146 10.92308 25707 ft 468 kts 239°
2026-04-23 15:09 54.93571 10.82844 26463 ft 466 kts 240°
2026-04-23 15:09 54.91857 10.78064 26482 ft 467 kts 241°
2026-04-23 15:09 54.90187 10.73226 26492 ft 467 kts 242°
2026-04-23 15:09 54.88536 10.68360 26503 ft 469 kts 242°
2026-04-23 15:10 54.87413 10.65040 26578 ft 474 kts 242°
2026-04-23 15:10 54.85183 10.58483 27019 ft 477 kts 241°
2026-04-23 15:10 54.83484 10.53540 27426 ft 477 kts 241°
2026-04-23 15:10 54.81771 10.48594 27766 ft 480 kts 241°
2026-04-23 15:11 54.80038 10.43623 28030 ft 484 kts 240°
2026-04-23 15:11 54.78284 10.38617 28236 ft 488 kts 240°
2026-04-23 15:11 54.76515 10.33584 28507 ft 491 kts 240°
2026-04-23 15:11 54.74735 10.28536 28847 ft 492 kts 240°
2026-04-23 15:12 54.72949 10.23483 29205 ft 492 kts 240°
2026-04-23 15:12 54.71164 10.18438 29627 ft 491 kts 240°
2026-04-23 15:12 54.69381 10.13405 30065 ft 490 kts 240°
2026-04-23 15:12 54.67602 10.08392 30424 ft 489 kts 240°
2026-04-23 15:13 54.65822 10.03385 30746 ft 489 kts 240°
2026-04-23 15:13 54.64091 9.98525 31091 ft 487 kts 240°
2026-04-23 15:13 54.62317 9.93555 31450 ft 486 kts 240°
2026-04-23 15:13 54.60545 9.88601 31801 ft 484 kts 240°
2026-04-23 15:14 54.58777 9.83665 32078 ft 484 kts 240°
2026-04-23 15:14 54.57000 9.78713 32193 ft 488 kts 240°
2026-04-23 15:14 54.55210 9.73737 32235 ft 489 kts 239°
2026-04-23 15:15 54.51635 9.63831 32255 ft 485 kts 239°
2026-04-23 15:15 54.48071 9.54000 32265 ft 484 kts 239°
2026-04-23 15:16 54.44500 9.44185 32262 ft 484 kts 239°
2026-04-23 15:16 54.40922 9.34387 32257 ft 484 kts 239°
2026-04-23 15:17 54.37360 9.24670 32265 ft 484 kts 239°
2026-04-23 15:17 54.33762 9.14893 32278 ft 485 kts 239°
2026-04-23 15:18 54.30151 9.05122 32273 ft 486 kts 238°
2026-04-23 15:18 54.26583 8.95496 32289 ft 485 kts 238°
2026-04-23 15:19 54.22964 8.85782 32299 ft 484 kts 238°
2026-04-23 15:19 54.19340 8.76100 32297 ft 483 kts 238°
2026-04-23 15:20 54.16333 8.68086 32305 ft 482 kts 237°
2026-04-23 15:20 54.12096 8.56838 32321 ft 482 kts 237°
2026-04-23 15:21 54.08461 8.47230 32319 ft 482 kts 237°
2026-04-23 15:21 54.04823 8.37641 32326 ft 482 kts 236°
2026-04-23 15:22 54.01177 8.28075 32328 ft 481 kts 236°
2026-04-23 15:22 53.97529 8.18548 32345 ft 481 kts 236°
2026-04-23 15:23 53.93876 8.09040 32339 ft 481 kts 236°
2026-04-23 15:23 53.90259 7.99659 32342 ft 481 kts 236°
2026-04-23 15:24 53.86587 7.90175 32357 ft 481 kts 236°
2026-04-23 15:24 53.82907 7.80700 32378 ft 481 kts 235°
2026-04-23 15:25 53.81067 7.75976 32351 ft 481 kts 235°
2026-04-23 15:25 53.78343 7.68997 32365 ft 480 kts 235°
2026-04-23 15:26 53.74661 7.59603 32361 ft 479 kts 234°
2026-04-23 15:26 53.70977 7.50235 32368 ft 479 kts 234°
2026-04-23 15:27 53.67312 7.40949 32375 ft 479 kts 234°
2026-04-23 15:27 53.63611 7.31614 32370 ft 479 kts 234°
2026-04-23 15:28 53.59903 7.22292 32402 ft 479 kts 234°
2026-04-23 15:28 53.56195 7.12997 32374 ft 478 kts 233°
2026-04-23 15:29 53.52490 7.03747 32384 ft 476 kts 233°
2026-04-23 15:29 53.48829 6.94645 32387 ft 476 kts 233°
2026-04-23 15:30 53.45118 6.85454 32389 ft 475 kts 233°
2026-04-23 15:30 53.41401 6.76279 32390 ft 476 kts 233°
2026-04-23 15:31 53.37674 6.67111 32422 ft 476 kts 233°
2026-04-23 15:31 53.33942 6.57961 32401 ft 476 kts 233°
2026-04-23 15:32 53.30206 6.48837 32404 ft 475 kts 233°
2026-04-23 15:32 53.26466 6.39738 32404 ft 474 kts 233°
2026-04-23 15:33 53.22727 6.30670 32414 ft 474 kts 233°
2026-04-23 15:33 53.18983 6.21624 32417 ft 473 kts 233°
2026-04-23 15:34 53.15236 6.12604 32426 ft 473 kts 233°
2026-04-23 15:34 53.11486 6.03608 32419 ft 473 kts 232°
2026-04-23 15:35 53.07778 5.94743 32419 ft 472 kts 232°
2026-04-23 15:35 53.04025 5.85802 32425 ft 471 kts 232°
2026-04-23 15:36 53.00291 5.76940 32424 ft 471 kts 232°
2026-04-23 15:36 52.96528 5.68042 32422 ft 471 kts 232°
2026-04-23 15:37 52.92754 5.59147 32426 ft 472 kts 232°
2026-04-23 15:37 52.89589 5.51707 32432 ft 472 kts 232°
2026-04-23 15:38 52.85804 5.42837 32429 ft 472 kts 231°
2026-04-23 15:38 52.82011 5.33986 32429 ft 471 kts 231°
2026-04-23 15:39 52.78239 5.25218 32426 ft 471 kts 231°